STARLINK-30201, 57301

Orbit data source: Space-Track

STARLINK-30201, 57301 is a payload satellite owned by SpaceX/Seattle (US) in LEO that was launched on Mon, 10 Jul 2023 UTC via an FALCON 9 launch vehicle from the Air Force Eastern Test Range (AFETR). Payload-class satellites include a variety of spacecraft equipped with specific instruments for various scientific and technological missions. These include communications satellites like Starlink; space stations such as the ISS; scientific satellites like the Hubble; Earth observation satellites from companies like Planet Labs, Umbra, and HawkEye 360; GPS; miniature CubeSats for education and research; and military/defense satellites.

Loading next visibility...
Identifier
57301, 2023-096M
Orbit
LEO
Country
Flag of USUS
Related business
Manufacturer
SpaceX/Seattle
Mission
Operational Commercial Communications
Bus & Motor
STARLINK V2M, Unknown motor
Mass
730 kg wet, ~700 kg dry
Launch date (UTC)
2023-07-10 (2 years ago)
Launch vehicle
FALCON 9
Launch site
Air Force Eastern Test Range (AFETR)
Object type
Payload
Rocket body
Debris
Shape & HBR
Box + 2 Pan, 14.5 m
Radar Cross Section
33.884 m², Large (>1 m²)

Expand to show TLE details & history
Last TLE update: 21 hours ago

TLE from 21 hours ago
0 STARLINK-30201
1 57301U 23096M   25241.21099658  .00000129  00000-0  24599-4 0  9995
2 57301  43.0027 189.0347 0001006 266.0702  94.0025 15.02535861117764
Epoch: 2025-08-29T05:03Z
TLE epoch observation values (Epoch: 2025-08-29T05:03:50.104Z)
Latitude
-0.00004°
Longitude
135.41298°
Altitude
558.907 km
Speed
7.584 km/s
True Right ascension
12h 36m 08s
True Declination
0° 00' 00"
Sunlit
Object was in daylight at epoch
Visualization orbit readout
Latitude
Unknown
Longitude
Unknown
Altitude
Unknown
Speed
Unknown
Apparent Right ascension
Unknown
Apparent Declination
Unknown
Sunlit
N/A
Visualization observer readout
Local Sidereal Time
17:08:05
Azimuth
Unknown
Elevation
Unknown
Doppler factor
Unknown
Orbital elements
Apogee altitude
561.702 km
Perigee altitude
560.305 km
Semi-major axis
6,939.14 km
Eccentricity
0.0001
Inclination
43.0027°
RAAN
189.0347°
Arg. of periapsis
266.0702°
True anomaly
94.014°
Mean anomaly
94.0025°
Eccentric anomaly
94.00825°
Mean motion
3.75478 °/min
Orbital period
95.88 mins
BSTAR
0.000024599
Loading maneuver chart data...
Computing Atmospheric mass density...
Loading historical data...
Loading historical data...
Loading historical data...
Loading historical data...
Loading historical data...
Loading historical data...
Loading historical data...

Documentation

Showing up to 5 results
|